Wind_Speed
18 16 16 15 15 13 7 10 9 13 12 25 21 20 21 17 17 21 27 26 26 29 32 34 36 38 39 41 41 38 35 31 29 30 32 34 36 35 33 33 33 31 28 30 34 35 35 38 37
20 21 21 19 18 15 2 10 14 15 22 26 20 25 17 12 24 30 31 31 34 29 31 34 36 38 40 42 42 35 32 29 29 32 35 33 32 34 35 33 33 31 30 30 31 32 35 36 39
23 24 24 23 22 13 8 22 28 14 24 23 21 31 31 25 33 27 26 31 36 31 35 36 38 39 40 42 44 35 30 28 29 34 33 31 32 35 35 34 33 33 33 29 29 30 32 34 35
26 25 25 26 22 15 5 24 15 16 4 25 29 28 27 29 36 34 25 30 37 35 34 36 36 39 42 44 43 35 29 29 31 35 32 32 35 35 36 36 35 35 36 35 30 29 31 34 35
30 30 32 31 26 18 19 17 20 20 18 13 24 16 33 36 39 37 28 28 33 45 36 34 39 40 46 45 38 33 30 32 33 33 33 34 37 37 39 39 39 37 35 34 34 32 29 32 33
36 40 39 35 29 22 22 18 37 36 33 28 20 29 34 33 42 41 37 32 38 39 46 37 40 44 45 43 33 30 31 34 34 33 35 36 39 39 40 40 36 34 34 33 31 30 31 32 30
41 44 43 36 30 20 11 30 37 40 25 15 27 27 32 37 36 44 38 36 45 41 44 41 33 42 42 37 29 29 32 35 34 36 38 38 40 40 38 36 36 33 32 29 29 29 29 31 32
45 46 47 42 37 31 23 28 34 33 27 22 32 31 35 37 37 39 52 45 40 49 53 54 37 37 38 32 27 30 32 33 35 38 40 41 40 39 35 33 35 34 31 27 26 26 27 28 29
47 53 55 45 37 37 32 30 26 21 23 28 38 41 41 48 49 50 56 41 43 39 43 60 47 32 36 30 30 33 32 32 37 40 42 39 39 35 34 32 35 34 30 29 28 28 29 29 29
51 53 50 45 39 42 42 37 26 31 30 26 26 28 31 39 45 49 53 51 47 40 41 49 55 36 34 32 30 33 33 35 38 40 38 38 34 35 36 36 35 33 33 31 30 30 31 30 29
55 55 51 47 45 44 47 49 35 32 36 33 41 36 40 51 54 50 50 49 46 38 41 43 50 38 38 34 29 30 33 35 39 35 35 32 34 35 35 34 31 29 28 32 33 33 31 28 29
59 60 56 52 50 50 50 49 45 40 38 41 44 43 42 52 55 57 52 50 47 44 43 39 52 38 37 35 31 27 31 34 37 34 33 32 36 36 35 35 36 35 34 32 31 28 27 27 26
65 63 58 55 54 51 51 55 59 59 55 53 54 53 57 58 59 66 55 53 45 43 43 38 46 44 35 34 33 30 32 30 32 32 30 32 36 36 35 35 34 35 35 31 28 27 27 26 25
61 63 63 62 64 61 54 57 58 55 53 54 53 58 53 54 58 60 51 55 51 49 43 39 44 39 33 30 34 33 32 32 33 32 32 35 38 39 37 37 35 34 35 35 31 27 27 25 25
71 72 73 65 64 66 58 64 60 55 57 55 49 50 50 50 48 48 48 52 51 44 41 37 41 33 30 29 32 34 32 33 32 33 34 36 38 42 41 39 38 37 35 32 31 30 28 26 25
68 69 70 61 59 49 50 58 47 41 44 48 46 47 47 44 46 46 44 45 43 40 36 38 34 35 32 30 28 32 32 32 34 34 36 38 40 44 42 41 41 41 36 32 31 30 30 30 30
67 68 59 47 44 50 47 48 36 38 37 42 42 43 40 40 39 47 48 42 43 40 35 36 34 40 32 27 27 30 32 32 34 37 40 41 43 46 45 43 43 41 37 35 34 32 34 33 33
56 51 41 49 43 46 41 44 32 40 39 36 37 39 36 43 46 51 49 40 42 40 35 34 36 39 28 26 27 31 31 32 34 40 42 45 45 45 43 43 45 44 40 38 36 35 33 31 30
53 50 54 53 46 46 41 43 36 40 39 38 43 38 36 40 40 40 47 38 42 37 34 34 35 35 27 27 29 31 31 33 38 42 45 46 46 44 45 46 44 41 39 38 38 34 33 33 30
59 60 57 49 48 45 36 41 42 39 38 40 38 38 36 38 40 45 42 37 38 30 32 31 34 28 27 27 29 32 34 36 40 41 43 43 42 44 45 41 40 39 38 34 32 31 29 30 29
57 56 51 48 46 44 35 44 39 35 39 40 39 41 36 38 38 39 35 40 32 25 25 29 27 25 27 28 31 34 34 35 35 37 39 38 38 40 39 39 35 33 30 26 24 23 23 24 24
59 52 51 48 47 52 39 49 34 33 35 36 38 33 33 32 29 28 31 32 24 23 25 24 24 24 27 30 32 34 34 33 33 34 36 37 32 33 30 31 29 23 20 19 17 15 15 17 20
53 46 48 45 46 43 47 45 19 31 32 36 35 27 28 28 26 25 26 28 20 22 21 22 24 26 29 31 33 31 31 30 30 32 30 32 33 29 26 22 19 16 13 11 9 10 11 12 11
56 52 47 44 40 43 34 39 24 25 34 29 26 27 33 29 24 24 29 18 22 19 18 22 25 26 30 30 27 27 25 26 28 26 27 30 28 22 19 16 12 10 9 8 8 8 9 3 6
63 57 51 48 48 44 25 38 29 26 29 25 21 26 29 27 23 24 19 17 18 15 18 21 22 26 27 25 25 21 22 26 24 23 25 24 18 16 13 10 8 8 10 11 10 10 9 7 5
64 64 62 59 53 46 39 41 31 29 23 17 22 23 19 23 20 14 16 18 15 16 18 20 23 24 23 22 19 20 21 21 22 24 20 18 14 11 9 9 10 9 8 9 8 8 7 5 3
51 60 56 51 40 41 33 28 28 26 12 15 18 12 13 9 13 15 17 15 16 17 17 20 21 22 21 17 17 18 19 20 19 19 17 13 10 6 7 7 8 8 8 11 15 10 9 4 2
50 48 57 52 46 37 32 19 13 24 18 17 14 16 13 12 13 15 16 15 16 15 17 19 19 20 15 16 15 18 20 17 17 16 11 8 5 4 6 5 5 5 7 13 18 11 3 1 4
61 54 57 49 48 46 31 15 18 27 26 20 20 15 13 16 16 14 16 16 13 15 17 16 17 13 13 14 15 19 16 15 13 12 9 7 3 4 2 4 5 5 8 14 17 11 3 1 5
55 58 58 60 53 44 31 22 27 24 17 20 22 21 17 16 14 14 13 10 13 15 12 14 12 11 13 13 15 15 14 11 10 8 7 6 3 1 1 5 3 5 7 12 16 15 19 16 7
Wind_Direction
228 229 235 233 235 233 249 313 247 252 247 269 263 288 300 309 289 271 295 315 305 304 306 309 312 315 319 319 320 322 326 322 319 318 319 319 317 313 307 303 300 296 287 276 273 272 265 262 257
231 236 236 239 243 246 312 276 263 220 251 245 275 296 300 266 269 294 311 313 311 308 307 310 316 319 322 321 325 327 325 321 319 319 318 318 313 310 306 302 297 294 293 289 279 271 268 262 258
231 235 241 233 235 247 207 277 216 244 269 251 273 295 298 287 290 295 310 310 300 298 303 310 315 318 320 322 325 326 326 319 317 319 318 314 310 309 306 305 301 294 287 284 280 274 268 265 259
232 234 239 248 250 225 189 302 293 267 287 276 291 287 286 283 292 297 313 302 301 299 308 312 313 319 321 323 322 322 324 319 320 321 317 312 310 311 307 305 301 295 288 280 276 271 266 262 261
243 248 255 249 246 244 233 230 229 261 269 301 293 271 290 292 290 296 307 304 305 307 309 314 319 326 324 324 323 322 323 323 323 320 317 315 312 309 308 308 308 301 295 287 279 271 262 260 259
248 247 252 248 244 246 237 255 258 253 249 251 280 298 285 288 291 299 308 299 311 312 308 319 323 327 325 322 322 319 321 323 322 321 318 316 313 311 313 312 308 303 297 289 283 271 262 256 254
249 250 249 243 243 238 253 256 259 262 272 276 250 245 261 281 292 292 298 298 305 305 302 304 326 326 321 319 317 318 321 320 322 321 317 315 312 312 310 308 307 304 297 290 283 278 270 257 252
251 250 247 246 245 240 208 265 266 273 266 242 264 251 263 271 280 294 296 302 308 312 312 310 323 323 318 317 316 318 319 318 320 320 318 318 316 312 310 310 308 308 302 292 289 282 278 272 260
256 261 259 260 266 249 233 245 259 256 255 257 259 269 284 286 285 286 289 293 299 300 307 306 312 327 315 313 317 316 318 318 320 319 318 318 316 314 309 308 306 301 301 297 295 290 286 278 268
260 261 265 264 256 249 246 243 262 265 268 276 281 278 290 290 283 282 290 294 298 299 299 306 311 323 311 308 315 315 315 317 319 317 316 316 314 313 311 308 303 300 298 297 294 287 287 279 272
257 266 269 262 260 255 258 258 254 256 261 271 269 276 279 282 290 289 290 289 295 303 299 304 304 319 306 305 311 312 309 317 317 313 314 316 314 312 310 309 306 303 299 299 296 291 286 275 271
253 266 262 262 264 262 263 264 252 249 259 269 284 274 276 279 289 292 288 290 293 298 296 298 301 313 300 300 305 306 308 316 309 307 309 318 317 315 316 312 311 309 305 302 296 287 281 282 273
260 261 259 262 262 269 262 258 263 261 263 265 267 272 271 275 282 285 282 285 292 297 293 298 301 305 297 300 305 303 307 310 300 302 309 315 315 315 315 308 308 306 307 304 298 296 286 277 273
262 259 258 259 259 269 267 267 270 268 273 277 277 279 280 271 280 280 281 279 287 290 290 298 297 296 292 298 300 301 306 303 302 300 310 319 316 316 314 311 307 303 301 302 300 294 290 279 273
259 261 263 260 261 262 270 273 271 277 285 280 278 278 276 279 280 278 281 289 282 285 292 295 291 288 291 293 293 299 302 300 300 307 311 314 312 314 312 309 305 302 298 295 292 286 282 276 273
253 256 259 256 263 275 270 272 275 279 278 282 280 277 281 281 279 282 282 285 274 282 298 295 286 283 292 288 290 296 298 296 302 304 307 311 314 310 309 306 304 301 298 292 290 284 279 275 266
249 255 263 270 267 268 262 267 280 283 283 283 286 274 275 277 276 277 279 277 276 282 298 289 280 284 292 285 295 295 295 295 298 301 306 308 310 305 307 303 302 299 294 293 289 284 276 271 265
253 260 266 265 268 269 272 274 280 283 280 282 285 283 286 277 274 275 275 274 276 282 291 281 277 284 285 291 301 297 290 291 295 300 304 304 304 302 300 299 299 294 290 292 286 282 276 267 264
257 259 259 261 268 271 268 273 275 277 270 278 274 286 281 273 264 264 277 275 275 284 280 275 275 283 286 296 299 300 298 297 297 298 298 299 299 300 299 301 298 294 292 289 286 279 273 269 260
247 250 255 260 262 264 259 267 274 281 282 281 280 288 283 273 268 271 278 269 276 269 267 269 273 283 286 292 299 298 294 293 293 298 298 296 300 298 298 299 296 296 295 293 285 281 275 266 260
242 246 250 253 255 255 258 264 270 277 278 278 283 280 285 288 281 275 274 263 274 256 261 264 278 278 289 292 296 294 294 298 298 298 298 297 298 301 303 301 301 299 296 291 284 275 270 263 254
240 244 248 251 253 255 255 267 270 275 278 283 283 298 298 294 277 266 262 266 261 251 251 269 274 280 286 291 299 296 298 297 299 296 296 298 302 300 301 302 302 303 304 303 298 289 280 270 256
236 236 242 245 252 258 253 261 271 269 276 281 294 298 295 288 274 264 256 260 247 243 260 274 277 282 289 299 301 294 296 297 293 295 299 304 308 310 306 303 306 308 314 311 312 311 305 283 255
228 230 232 236 243 251 249 258 264 275 274 288 294 298 288 283 265 252 248 257 239 246 267 273 278 285 296 301 296 297 296 294 294 298 305 305 307 306 307 311 317 319 338 345 332 336 352 328 211
225 223 225 229 231 246 248 255 273 268 283 287 293 297 285 268 251 256 251 228 235 261 270 272 283 297 299 294 298 295 289 293 297 300 309 308 310 322 325 331 319 328 339 337 341 348 6 47 121
222 224 225 228 238 248 247 255 280 287 299 284 290 286 267 261 263 245 223 226 252 258 265 285 293 297 293 297 294 290 287 294 295 307 308 309 319 327 340 339 332 338 356 0 3 11 15 32 71
214 209 225 225 234 244 246 275 291 301 296 278 287 251 246 248 230 229 229 244 248 258 284 291 295 293 294 292 291 288 294 294 297 301 298 304 315 335 339 345 345 357 11 354 3 1 3 14 113
199 216 211 217 216 229 234 260 270 266 286 286 276 236 240 238 236 231 239 242 251 281 294 294 293 291 290 292 286 294 298 294 298 293 295 293 301 2 341 344 6 13 23 13 23 45 49 139 149
202 200 210 214 218 217 219 211 243 262 267 288 243 233 244 236 231 227 230 244 280 298 298 291 289 286 292 292 293 298 294 297 289 284 290 281 269 13 358 346 10 33 39 26 36 68 37 28 221
204 207 202 204 210 213 216 216 243 248 274 273 243 231 234 232 222 228 238 273 300 307 291 287 282 290 297 293 301 296 300 296 274 284 287 279 243 69 336 352 8 39 38 30 33 72 74 69 68
Height
5886 5887 5888 5889 5893 5893 5896 5897 5900 5899 5895 5893 5894 5893 5892 5890 5888 5884 5880 5880 5878 5876 5872 5868 5865 5862 5860 5857 5857 5858 5856 5854 5851 5850 5848 5846 5845 5843 5840 5838 5837 5837 5837 5837 5836 5836 5836 5837 5838
5883 5884 5885 5886 5890 5891 5892 5893 5901 5893 5887 5886 5890 5889 5887 5887 5882 5877 5877 5875 5870 5871 5868 5865 5861 5858 5857 5854 5853 5853 5852 5850 5847 5845 5843 5840 5838 5837 5836 5834 5833 5832 5830 5830 5830 5830 5829 5830 5832
5879 5880 5883 5882 5884 5889 5890 5889 5884 5885 5886 5885 5889 5885 5882 5879 5876 5876 5877 5871 5865 5868 5864 5861 5859 5856 5855 5852 5849 5849 5847 5845 5843 5840 5837 5834 5832 5831 5830 5828 5827 5826 5825 5825 5824 5824 5823 5823 5824
5875 5877 5878 5881 5882 5887 5889 5883 5883 5885 5884 5882 5886 5884 5880 5874 5871 5873 5875 5868 5861 5863 5864 5859 5858 5854 5851 5848 5844 5843 5842 5840 5837 5835 5831 5829 5828 5826 5824 5822 5820 5818 5818 5818 5819 5818 5816 5816 5818
5871 5872 5873 5876 5880 5883 5883 5884 5884 5882 5884 5882 5878 5879 5873 5870 5867 5867 5868 5865 5863 5850 5858 5859 5854 5851 5846 5843 5840 5837 5836 5834 5833 5830 5827 5824 5823 5821 5818 5815 5813 5811 5809 5808 5809 5810 5810 5809 5810
5867 5867 5869 5872 5875 5878 5881 5884 5878 5878 5880 5881 5880 5873 5874 5864 5855 5860 5861 5858 5857 5854 5844 5854 5850 5846 5841 5838 5836 5834 5832 5830 5828 5825 5823 5820 5818 5815 5811 5808 5806 5804 5803 5801 5800 5800 5801 5803 5803
5862 5861 5864 5866 5870 5873 5881 5876 5870 5873 5875 5877 5871 5872 5869 5864 5857 5853 5857 5854 5851 5851 5843 5846 5851 5842 5838 5835 5833 5831 5829 5826 5824 5821 5819 5816 5813 5810 5807 5803 5799 5799 5797 5796 5794 5793 5793 5793 5795
5855 5854 5854 5860 5863 5867 5872 5868 5865 5866 5868 5868 5862 5866 5866 5864 5859 5853 5844 5851 5850 5839 5835 5833 5844 5840 5834 5831 5829 5827 5825 5822 5819 5816 5814 5810 5808 5805 5802 5799 5795 5793 5792 5790 5789 5788 5787 5787 5787
5845 5844 5844 5854 5856 5861 5863 5863 5863 5860 5859 5861 5860 5858 5861 5857 5854 5850 5842 5848 5849 5847 5840 5824 5835 5839 5831 5828 5825 5822 5820 5817 5815 5812 5809 5805 5802 5799 5797 5795 5792 5789 5787 5784 5783 5782 5780 5780 5780
5834 5835 5841 5847 5850 5852 5852 5855 5856 5856 5854 5852 5851 5854 5855 5850 5846 5843 5840 5840 5842 5843 5841 5829 5819 5827 5828 5822 5821 5817 5815 5812 5810 5807 5804 5801 5798 5794 5790 5788 5787 5784 5780 5778 5776 5775 5774 5773 5773
5827 5827 5835 5836 5841 5845 5845 5846 5849 5848 5848 5849 5848 5847 5848 5843 5839 5838 5836 5835 5836 5838 5835 5829 5819 5823 5820 5818 5816 5813 5810 5808 5806 5802 5799 5797 5793 5791 5787 5783 5780 5779 5776 5771 5769 5767 5767 5766 5765
5817 5821 5823 5829 5833 5835 5836 5839 5839 5840 5839 5842 5840 5840 5838 5838 5832 5829 5828 5828 5830 5830 5828 5824 5812 5819 5814 5811 5809 5809 5806 5804 5800 5798 5795 5792 5788 5785 5780 5776 5771 5770 5768 5766 5762 5761 5760 5759 5759
5807 5813 5817 5821 5822 5825 5829 5828 5828 5827 5832 5834 5832 5831 5830 5828 5826 5821 5822 5822 5823 5823 5821 5820 5809 5809 5809 5804 5800 5800 5799 5799 5796 5794 5792 5789 5783 5779 5776 5772 5769 5764 5759 5758 5757 5754 5753 5753 5752
5803 5803 5806 5809 5812 5815 5815 5815 5818 5820 5823 5823 5822 5820 5820 5818 5818 5811 5815 5814 5817 5816 5814 5812 5805 5805 5805 5800 5794 5793 5791 5790 5789 5787 5785 5784 5779 5773 5770 5766 5763 5760 5756 5751 5749 5749 5747 5747 5746
5788 5788 5792 5795 5801 5801 5811 5803 5806 5812 5814 5810 5809 5809 5807 5807 5807 5805 5809 5809 5804 5806 5807 5806 5800 5800 5799 5794 5790 5787 5786 5783 5783 5780 5778 5777 5775 5768 5764 5759 5755 5753 5750 5747 5745 5743 5742 5741 5740
5775 5777 5775 5788 5794 5800 5799 5788 5803 5807 5803 5799 5800 5799 5799 5800 5799 5799 5802 5799 5796 5799 5801 5798 5795 5793 5793 5789 5786 5783 5781 5780 5776 5775 5773 5770 5768 5763 5758 5753 5749 5744 5742 5740 5739 5737 5735 5734 5734
5764 5763 5771 5785 5792 5787 5788 5785 5797 5795 5793 5790 5790 5789 5791 5792 5793 5793 5791 5791 5790 5792 5795 5791 5790 5785 5787 5783 5781 5779 5776 5776 5772 5770 5767 5764 5761 5756 5751 5745 5740 5737 5734 5731 5730 5728 5726 5726 5726
5758 5765 5771 5769 5780 5780 5778 5777 5786 5786 5785 5784 5784 5782 5784 5785 5785 5782 5783 5786 5784 5786 5787 5785 5783 5779 5780 5777 5775 5773 5771 5770 5768 5763 5760 5757 5754 5748 5743 5739 5733 5728 5725 5723 5720 5718 5717 5716 5717
5754 5756 5755 5760 5770 5771 5769 5771 5778 5777 5776 5776 5775 5777 5777 5775 5773 5772 5776 5777 5776 5780 5777 5777 5776 5773 5771 5770 5770 5767 5765 5764 5761 5758 5754 5751 5745 5739 5733 5729 5723 5719 5716 5714 5710 5708 5708 5708 5708
5739 5740 5745 5756 5761 5765 5763 5762 5766 5769 5768 5767 5768 5767 5766 5765 5764 5765 5767 5767 5769 5769 5768 5769 5769 5767 5765 5765 5763 5761 5759 5758 5755 5751 5747 5743 5738 5731 5726 5721 5715 5711 5707 5705 5701 5699 5698 5698 5700
5728 5734 5743 5747 5753 5753 5754 5751 5758 5762 5760 5760 5760 5758 5759 5759 5758 5759 5758 5755 5761 5760 5762 5763 5763 5762 5760 5759 5758 5755 5754 5751 5749 5744 5739 5736 5731 5724 5718 5713 5707 5702 5699 5698 5694 5692 5692 5691 5693
5718 5730 5735 5738 5742 5740 5749 5740 5750 5753 5752 5752 5750 5753 5751 5749 5748 5749 5749 5749 5754 5754 5755 5757 5757 5757 5756 5755 5752 5750 5748 5744 5742 5737 5732 5727 5725 5719 5714 5706 5701 5698 5695 5693 5690 5688 5686 5685 5686
5713 5722 5724 5730 5730 5732 5737 5739 5744 5746 5746 5745 5746 5747 5745 5742 5741 5741 5741 5743 5748 5749 5750 5752 5752 5752 5751 5749 5747 5744 5742 5739 5736 5731 5727 5721 5716 5711 5706 5702 5699 5697 5693 5690 5688 5686 5684 5682 5681
5700 5709 5714 5720 5723 5720 5733 5733 5734 5742 5738 5741 5741 5739 5737 5736 5734 5735 5734 5740 5743 5744 5746 5747 5747 5747 5746 5743 5741 5739 5736 5734 5731 5727 5722 5717 5712 5708 5703 5700 5698 5696 5693 5690 5688 5686 5683 5679 5679
5683 5694 5702 5708 5709 5714 5731 5724 5728 5735 5734 5734 5735 5733 5731 5729 5729 5729 5734 5737 5739 5741 5742 5743 5744 5742 5740 5738 5736 5735 5732 5729 5725 5722 5718 5713 5709 5705 5702 5700 5698 5696 5693 5690 5687 5684 5682 5681 5680
5669 5680 5688 5696 5705 5714 5721 5718 5726 5726 5727 5729 5729 5727 5726 5725 5725 5728 5731 5734 5736 5738 5739 5740 5739 5737 5735 5734 5732 5730 5728 5725 5721 5718 5715 5711 5708 5704 5702 5701 5698 5696 5694 5691 5688 5685 5683 5683 5683
5658 5664 5688 5694 5702 5707 5714 5715 5718 5720 5723 5723 5723 5724 5723 5723 5725 5727 5730 5732 5734 5735 5736 5735 5734 5733 5732 5730 5729 5726 5724 5722 5718 5715 5713 5709 5706 5704 5702 5700 5699 5697 5695 5693 5690 5687 5686 5685 5685
5641 5663 5673 5678 5690 5699 5709 5716 5722 5715 5719 5720 5720 5721 5722 5722 5724 5726 5729 5730 5731 5732 5732 5731 5730 5730 5729 5727 5725 5723 5720 5717 5715 5713 5710 5708 5705 5703 5701 5700 5700 5699 5697 5694 5691 5688 5687 5687 5687
5631 5641 5657 5677 5684 5692 5703 5712 5719 5715 5713 5718 5716 5718 5719 5720 5722 5724 5726 5727 5729 5729 5728 5728 5727 5727 5726 5724 5722 5719 5716 5715 5713 5711 5708 5707 5705 5703 5703 5701 5701 5700 5699 5698 5695 5692 5690 5688 5687
5624 5638 5649 5659 5674 5685 5699 5708 5709 5710 5712 5713 5714 5715 5717 5718 5720 5722 5723 5725 5726 5726 5725 5725 5725 5724 5723 5721 5720 5716 5715 5712 5711 5709 5707 5706 5704 5704 5703 5703 5703 5702 5702 5700 5698 5695 5693 5691 5690